Location: Sternwarte ZA, Rosenfeld-Brittheim
(48.2889°N, 8.6789°E)
Time: 04:57:29
(UTC+02:00)

ISS - Pass Details

Date: 28 March 2020
Orbit: 417 x 423 km, 51.6° (Epoch: 29 March)

Event Time Altitude Azimuth Distance (km) Brightness Sun altitude
Rises 21:29:48 0° 292° (WNW) 2,363 1.3 -25.1°
Reaches altitude 10° 21:31:54 10° 292° (WNW) 1,498 0.0 -25.4°
Enters shadow 21:33:40 29° 292° (WNW) 805 -1.8 -25.6°
